TimeCDT,TemperatureF,Dew PointF,Humidity,Sea Level PressureIn,VisibilityMPH,Wind Direction,Wind SpeedMPH,Gust SpeedMPH,PrecipitationIn,Events,Conditions,WindDirDegrees,DateUTC
12:53 AM,72.0,66.9,84,29.74,10.0,Calm,Calm,-,N/A,,Clear,0,2013-06-30 05:53:00
1:53 AM,70.0,66.0,87,29.73,10.0,Calm,Calm,-,0.00,,Clear,0,2013-06-30 06:53:00
2:53 AM,70.0,66.0,87,29.73,10.0,Calm,Calm,-,N/A,,Clear,0,2013-06-30 07:53:00
3:53 AM,72.0,64.9,78,29.72,10.0,WNW,3.5,-,N/A,,Partly Cloudy,290,2013-06-30 08:53:00
4:53 AM,70.0,64.9,84,29.72,10.0,Calm,Calm,-,N/A,,Clear,0,2013-06-30 09:53:00
5:53 AM,70.0,64.9,84,29.73,10.0,Calm,Calm,-,N/A,,Clear,0,2013-06-30 10:53:00
6:53 AM,70.0,66.0,87,29.73,10.0,Calm,Calm,-,N/A,,Partly Cloudy,0,2013-06-30 11:53:00
7:53 AM,75.0,68.0,79,29.75,10.0,Calm,Calm,-,N/A,,Partly Cloudy,0,2013-06-30 12:53:00
8:53 AM,78.1,68.0,71,29.75,10.0,NW,3.5,-,N/A,,Scattered Clouds,310,2013-06-30 13:53:00
9:53 AM,82.9,66.0,56,29.75,10.0,North,3.5,-,N/A,,Partly Cloudy,360,2013-06-30 14:53:00
10:53 AM,84.9,66.0,53,29.75,10.0,NNW,6.9,-,N/A,,Scattered Clouds,330,2013-06-30 15:53:00
11:53 AM,84.9,64.0,49,29.76,10.0,NW,11.5,-,N/A,,Scattered Clouds,320,2013-06-30 16:53:00
12:53 PM,86.0,64.0,48,29.76,10.0,NNW,8.1,-,N/A,,Clear,330,2013-06-30 17:53:00
1:53 PM,87.1,64.0,46,29.74,10.0,WNW,10.4,-,N/A,,Clear,290,2013-06-30 18:53:00
2:53 PM,87.1,62.1,43,29.75,10.0,NW,10.4,19.6,N/A,,Clear,310,2013-06-30 19:53:00
3:53 PM,87.1,63.0,44,29.75,10.0,North,9.2,-,N/A,,Partly Cloudy,350,2013-06-30 20:53:00
4:53 PM,84.9,63.0,48,29.75,10.0,NW,12.7,20.7,N/A,,Partly Cloudy,320,2013-06-30 21:53:00
5:53 PM,84.9,63.0,48,29.76,10.0,NNW,8.1,-,N/A,,Partly Cloudy,330,2013-06-30 22:53:00
6:53 PM,82.9,63.0,51,29.76,10.0,NW,8.1,17.3,N/A,,Clear,320,2013-06-30 23:53:00
7:53 PM,79.0,63.0,58,29.77,10.0,NNW,4.6,-,N/A,,Clear,330,2013-07-01 00:53:00
8:53 PM,77.0,64.0,64,29.79,10.0,Calm,Calm,-,N/A,,Clear,0,2013-07-01 01:53:00
9:53 PM,75.0,64.0,69,29.81,10.0,NW,3.5,-,N/A,,Clear,320,2013-07-01 02:53:00
10:53 PM,73.0,64.0,73,29.81,10.0,NW,3.5,-,N/A,,Clear,320,2013-07-01 03:53:00
11:53 PM,71.1,64.0,78,29.82,10.0,NW,3.5,-,N/A,,Clear,310,2013-07-01 04:53:00